Regional Weather Roundup
Issued by NWS Little Rock, AR

Home | Current Version | Previous Version | Graphics & Text | Print | Product List | Glossary On
Versions: 1 2 3 4 5 6 7 8 9 10 11 12 13 14 15 16 17 18 19 20 21 22 23 24 25 26 27 28 29 30 31 32 33 34 35 36 37 38 39 40 41 42 43 44 45 46 47 48 49 50
000
ASUS44 KLZK 201605
RWRLZK

WEATHER ROUNDUP FOR ARKANSAS
NATIONAL WEATHER SERVICE LITTLE ROCK AR
1000 AM CST MON NOV 20 2017

NOTE: "FAIR" INDICATES FEW OR NO CLOUDS BELOW 12,000 FEET WITH NO
SIGNIFICANT WEATHER AND/OR OBSTRUCTIONS TO VISIBILITY.

ARZ001-003-010-029-201700-
NORTHWEST ARKANSAS

CITY           SKY/WX    TMP DP  RH WIND       PRES   REMARKS
FAYETTEVILLE   SUNNY     53  30  41 S15       30.12F
FORT SMITH     SUNNY     48  35  60 VRB3      30.18F
HARRISON       SUNNY     50  31  48 S8        30.14F
BENTONVILLE    SUNNY     52  29  41 S15       30.13F
ROGERS         SUNNY     53  29  39 S21       30.11F
SILOAM SPGS    SUNNY     52  29  41 S20G26    30.12F
HIGHFILL       SUNNY     52  30  43 S14       30.11F
SPRINGDALE     SUNNY     52  28  40 S17G24    30.13F
$$

ARZ004-005-016-201700-
NORTH CENTRAL ARKANSAS

CITY           SKY/WX    TMP DP  RH WIND       PRES   REMARKS
BATESVILLE     SUNNY     47  27  45 S13       30.23F
FLIPPIN        SUNNY     50  27  40 S6        30.17F
MTN HOME       SUNNY     50  25  37 S12       30.15F
$$

ARZ040-041-201700-
WEST CENTRAL ARKANSAS

CITY           SKY/WX    TMP DP  RH WIND       PRES   REMARKS
MENA           SUNNY     54  30  40 S3        30.20F
MOUNT IDA      SUNNY     50  35  56 VRB3      30.19F
$$

ARZ009-017-025-026-028-201700-
NORTHEAST ARKANSAS

CITY           SKY/WX    TMP DP  RH WIND       PRES   REMARKS
JONESBORO      CLOUDY    45  32  60 S8        30.24F
NEWPORT        MOSUNNY   46  31  55 S15       30.25F
WALNUT RIDGE     N/A     45  32  60 SW12      30.24F
BLYTHEVILLE    CLOUDY    43  30  60 S12       30.26F
NW BLYTHEVILLE SUNNY     45  32  61 S10       30.26S
$$

ARZ022-023-033-042-044-201700-
CENTRAL ARKANSAS

CITY           SKY/WX    TMP DP  RH WIND       PRES   REMARKS
LITTLE ROCK    MOSUNNY   47  30  51 S9        30.26F
N LITTLE ROCK    N/A     47  29  49 S8        30.27F
SEARCY         SUNNY     46  33  60 S12       30.26F
HOT SPRINGS    SUNNY     50  32  50 S5        30.25S
RUSSELLVILLE   SUNNY     47  32  56 VRB5      30.21F
CLINTON        FAIR      43  32  65 CALM      30.23F
$$

ARZ036-201700-
EAST ARKANSAS

CITY           SKY/WX    TMP DP  RH WIND       PRES   REMARKS
WEST MEMPHIS   MOSUNNY   44  29  55 S14       30.27S
$$

ARZ050-053-066-070-073-201700-
SOUTHWEST ARKANSAS

CITY           SKY/WX    TMP DP  RH WIND       PRES   REMARKS
ARKADELPHIA    FAIR      48  33  56 VRB5      30.27F
CAMDEN         SUNNY     50  30  46 SE6       30.27S
TEXARKANA      SUNNY     51  31  46 S12       30.25S
EL DORADO      CLOUDY    47  35  63 S7        30.28R
DE QUEEN       SUNNY     50  36  58 S7        30.22F
$$

ARZ056-057-069-201700-
SOUTHEAST ARKANSAS

CITY           SKY/WX    TMP DP  RH WIND       PRES   REMARKS
PINE BLUFF     SUNNY     46  30  53 SE10      30.27F
STUTTGART      CLOUDY    47  31  53 S12       30.28S
MONTICELLO     CLOUDY    46  30  53 SE8       30.28S

$$





USA.gov is the U.S. government's official web portal to all federal, state and local government web resources and services.